Location: Aghk�ilisa
(40.0189°N, 45.0097°E)
Time: 22:05:53
(UTC+00:00)

Cosmos 2061 Rocket - Pass Details

Date: 21 October 2019
Orbit: 965 x 1013 km, 82.9° (Epoch: 11 November)

Event Time Altitude Azimuth Distance (km) Brightness Sun altitude
Rises 16:54:56 0° 348° (NNW) 3,682 7.3 -31.7°
Reaches altitude 10° 16:57:30 10° 345° (NNW) 2,725 6.6 -32.2°
Maximum altitude 17:03:34 58° 268° (W) 1,121 4.4 -33.3°
Enters shadow 17:04:19 54° 239° (WSW) 1,161 4.5 -33.4°
